Tracking 29892 objects as of 21-Nov-2024
HD Live streaming from Space Station
objects crossing your sky now

SL-12 DEB

Track SL-12 DEB now!
10-day predictions


NORAD ID: 23616
Int'l Code: 1992-047J
Perigee: 230.2 km
Apogee: 8,128.7 km
Inclination: 64.2 °
Period: 179.7 minutes
Semi major axis: 10550 km
RCS: 0.1077 m2 (medium)
Launch date: July 30, 1992
Source: Commonwealth of Independent States (former USSR) (CIS)
Launch site: TYURATAM MISSILE AND SPACE COMPLEX (TTMTR)

Note: This is SATELLITE DEBRIS
Your satellite tracking list
Your tracking list is empty




NASA's NSSDC Master Catalog

Two Line Element Set (TLE):
1 23616U 92047J   24325.86022460  .00143179  00000-0  27487-2 0  9999
2 23616  64.2211 112.8634 3743236 180.0152 180.1157  8.01120896 93646
Source of the keplerian elements: AFSPC